TIANLIAN 2-01

Last updated on Aug. 7, 2020, 5:35 a.m. UTC

1 44076U 19017A   20219.49927792 -.00000147  00000-0  00000-0 0  9995
2 44076   1.8904 285.8298 0034629 213.7742  75.5269  1.00268996  5142
UTC
Height (km)
Latitude
Longitude
Inclination
Orbital Period
UTC large
Height (km)
Speed (km/s)
/
Latitude / Longitude
Inclination (degrees)
Orbital Period (minutes)
Azimuth
Elevation
Range (km)
Doppler Factor
iOS Compass Heading
iOS Angle

Next 30 passes for location: Hong Kong

Rise time Rise Azimuth (degrees) Set time Set Azimuth (degrees) Duration Max altitude (degrees)

No matching passes for this satellites